Weather Roundup
Issued by NWS Chicago, IL

Home | Current Version | Previous Version | Graphics & Text | Print | Product List | Glossary On
Versions: 1 2 3 4 5 6 7 8 9 10 11 12 13 14 15 16 17 18 19 20 21 22 23 24 25 26 27 28 29 30 31 32 33 34 35 36 37 38 39 40 41 42 43 44 45 46 47 48 49 50
731
NZUS59 KLOT 201204
HRRLOT

CHICAGO AREA WEATHER ROUNDUP
NATIONAL WEATHER SERVICE CHICAGO/ROMEOVILLE IL
700 AM CDT FRI OCT 20 2017

NOTE: "FAIR" INDICATES FEW OR NO CLOUDS BELOW 12,000 FEET WITH NO
SIGNIFICANT WEATHER AND/OR OBSTRUCTIONS TO VISIBILITY.

* THESE STATIONS ARE NOT UNDER NWS QUALITY CONTROL. THEY ALSO MAY NOT
  REPORT WEATHER SUCH AS PRECIPITATION OR FOG.

ILZ005-006-012>014-019>023-201300-
NORTHEAST ILLINOIS

CITY           SKY/WX    TMP DP  RH WIND       PRES   REMARKS
OHARE            N/A     53  47  79 S3        30.16S
6HR MIN TEMP:  51; 6HR MAX TEMP:  55;

MIDWAY           N/A     57  49  74 S7        30.17S
6HR MIN TEMP:  54; 6HR MAX TEMP:  58;

AURORA           N/A     49  46  90 SE3       30.17R
6HR MIN TEMP:  46; 6HR MAX TEMP:  52;

LANSING*         N/A     53  50  90 S3        30.19S
JOLIET*          N/A     50  49  95 CALM      30.17S
WAUKEGAN         N/A     54  47  77 SW9       30.14S
6HR MIN TEMP:  49; 6HR MAX TEMP:  54;

DUPAGE AIRPORT   N/A     49  47  93 S5        30.16S
6HR MIN TEMP:  48; 6HR MAX TEMP:  53;

WHEELING         N/A     50  45  83 CALM      30.17S
6HR MIN TEMP:  48; 6HR MAX TEMP:  53;

KANKAKEE*        N/A     49  47  92 CALM      30.20S
MORRIS*          N/A     50  47  90 S3        30.16S
NORTHERLY ISL    N/A     59  47  64 S6          N/A
$$

WIZ051-052-058>065-066-070>072-201300-
SOUTHEAST WISCONSIN

CITY           SKY/WX    TMP DP  RH WIND       PRES   REMARKS
MILWAUKEE        N/A     53  44  71 SW5       30.14R
6HR MIN TEMP:  53; 6HR MAX TEMP:  56;

KENOSHA*         N/A     48  43  82 SW3       30.14S
RACINE*          N/A     52  45  77 SW7       30.15S
WAUKESHA       CLEAR     50  43  76 S8        30.14S
WEST BEND        N/A     45  39  81 CALM      30.11S
$$

INZ001>003-010>013-019-020-201300-
NORTHWEST INDIANA

CITY           SKY/WX    TMP DP  RH WIND       PRES   REMARKS
GARY*          PTCLDY    55  48  76 S5        30.19S
MICHIGAN CITY* NOT AVBL
RENSSELAER*    NOT AVBL
VALPARAISO       N/A     47  42  83 CALM      30.21S
$$

LMZ740>746-201300-
SOUTHERN LAKE MICHIGAN

STATION/POSITION TIME  SKY/WX   TEMP WIND        PRES    VSBY
                                AIR  DIR/SP/G
                 (UTC)          (F)  (DEG/KT/KT) (MB)    (MI)
HARRISON CRIB    1140            62  190/ 17/ 18   N/A
BURNHAM HARBOR   1200            59  200/  6/  6   N/A
CALUMET HARBOR   1130            55  180/  5/  6 1021.0S
BURNS HARBOR     1140            57  180/ 12/ 15 1022.7R
MICHIGAN CITY    1140            58  170/ 11/ 15   N/A
$$

ABBREVIATIONS USED IN REMARKS
   TC - TEMPERATURE IN CELSIUS
  WCI - WIND CHILL INDEX
   HX - HEAT INDEX
  VSB - VISIBILITY
$$




USA.gov is the U.S. government's official web portal to all federal, state and local government web resources and services.